• Join FlightAware (Why Join?)
  • Login
  • US Flag 
05:31PM EDT


 

Airport Tracker/Info


-or-


 

Live Flight TrackerFlight Track Log ✈ SWA561 ✈ 02-Sep-2013 ✈ KABQ - KDAL

Flight Track Log - Related Links

Times and Time Zones

All times are in EDT time to prevent confusion due to time zone crossing. See the SWA561 flight status page for this flight to view local times or setup timezone preferences in your user account.

Time Position Orientation Groundspeed Altitude Reporting Facility
EDT Latitude Longitude Course Direction KTS MPH feet Rate Location/Type
11:04AM 34.9858 -106.5158 90° East 234 269 8,100  Level Albuquerque Center
11:05AM 34.9192 -106.4717 151° Southeast 268 308 10,800 2,160 Climbing Albuquerque Center
11:06AM 34.8711 -106.3947 127° Southeast 298 343 12,600 2,040 Climbing Albuquerque Center
11:07AM 34.8317 -106.2892 114° Southeast 332 382 15,000 2,280 Climbing Albuquerque Center
11:08AM 34.7850 -106.1833 118° Southeast 338 389 17,300 1,800 Climbing Albuquerque Center
11:09AM 34.7500 -106.0804 90° East  Level FlightAware Approximate
11:09AM 34.7633 -106.0661 103° East 355 409 18,800  Level Albuquerque Center
11:10AM 34.7556 -105.9403 94° East 370 426 20,500 1,620 Climbing Albuquerque Center
11:11AM 34.7453 -105.8097 95° East 379 436 22,200 1,740 Climbing Albuquerque Center
11:12AM 34.7342 -105.6503 95° East 397 457 24,100 1,680 Climbing Albuquerque Center
11:13AM 34.7233 -105.5108 95° East 407 468 25,700 1,500 Climbing Albuquerque Center
11:14AM 34.7122 -105.3714 95° East 412 474 27,200 1,320 Climbing Albuquerque Center
11:15AM 34.7014 -105.2281 95° East 419 482 28,500 1,140 Climbing Albuquerque Center
11:16AM 34.6906 -105.0828 95° East 427 491 29,600 1,140 Climbing Albuquerque Center
11:17AM 34.6789 -104.9353 95° East 433 498 30,900 1,200 Climbing Albuquerque Center
11:18AM 34.6669 -104.7872 96° East 437 503 32,100 1,200 Climbing Albuquerque Center
11:19AM 34.6553 -104.6400 95° East 437 503 33,400 1,200 Climbing Albuquerque Center
11:20AM 34.6433 -104.4953 96° East 433 498 34,600 780 Climbing Albuquerque Center
11:21AM 34.6314 -104.3508 96° East 429 494 35,000 180 Climbing Albuquerque Center
11:22AM 34.6172 -104.1831 96° East 428 493 35,000  Level Albuquerque Center
11:23AM 34.6047 -104.0381 96° East 429 494 35,000  Level Albuquerque Center
11:24AM 34.5919 -103.8944 96° East 428 493 35,000  Level Albuquerque Center
11:25AM 34.5794 -103.7525 96° East 424 488 35,000  Level Albuquerque Center
11:26AM 34.5672 -103.6092 96° East 425 489 35,000  Level Albuquerque Center
11:27AM 34.5544 -103.4678 96° East 421 484 35,000  Level Albuquerque Center
11:28AM 34.5400 -103.3256 97° East 422 486 35,000  Level Albuquerque Center
11:29AM 34.5269 -103.1828 96° East 422 486 35,000  Level Albuquerque Center
11:31AM 34.5139 -103.0394 96° East 425 489 35,000  Level Albuquerque Center
11:32AM 34.4978 -102.8725 97° East 425 489 35,000  Level Albuquerque Center
11:33AM 34.4844 -102.7422 97° East 427 491 35,000  Level Albuquerque Center
11:34AM 34.4683 -102.5986 98° East 428 493 35,000  Level Albuquerque Center
11:35AM 34.4533 -102.4567 97° East 429 494 35,000  Level Albuquerque Center
11:36AM 34.4364 -102.2878 97° East 427 491 35,000  Level Albuquerque Center
11:37AM 34.4208 -102.1467 98° East 426 490 35,000  Level Albuquerque Center
11:38AM 34.4078 -102.0072 96° East 423 487 35,000  Level Albuquerque Center
11:39AM 34.3919 -101.8658 98° East 424 488 35,000  Level Albuquerque Center
11:40AM 34.3758 -101.7242 98° East 426 490 35,000  Level Albuquerque Center
11:41AM 34.3608 -101.5842 97° East 425 489 35,000  Level Albuquerque Center
11:42AM 34.3458 -101.4442 97° East 424 488 35,000  Level Albuquerque Center
11:43AM 34.3267 -101.2778 98° East 420 483 35,000  Level Albuquerque Center
11:44AM 34.3111 -101.1378 98° East 421 484 35,000  Level Albuquerque Center
11:45AM 34.2883 -100.9450 98° East 428 493 35,000  Level Fort Worth Center
11:46AM 34.2714 -100.8036 98° East 428 493 35,000  Level Fort Worth Center
11:47AM 34.2561 -100.6647 98° East 428 493 35,000  Level Fort Worth Center
11:48AM 34.2222 -100.5256 106° East 428 493 35,000  Level Fort Worth Center
11:49AM 34.1958 -100.4142 106° East 428 493 35,000  Level Fort Worth Center
11:50AM 34.1575 -100.2647 107° East 428 493 35,000  Level Fort Worth Center
11:51AM 34.1250 -100.1256 106° East 428 493 35,000  Level Fort Worth Center
11:52AM 34.0925 -99.9917 106° East 423 487 35,000  Level Fort Worth Center
11:53AM 34.0597 -99.8503 106° East 429 494 35,000  Level Fort Worth Center
11:54AM 34.0250 -99.7114 107° East 429 494 35,000  Level Fort Worth Center
11:55AM 33.9919 -99.5703 106° East 429 494 35,000  Level Fort Worth Center
11:56AM 33.9525 -99.4242 108° East 423 487 35,000  Level Fort Worth Center
11:57AM 33.9214 -99.2833 105° East 429 494 35,000  Level Fort Worth Center
11:58AM 33.8858 -99.1447 107° East 429 494 35,000  Level Fort Worth Center
11:59AM 33.8500 -99.0067 107° East 429 494 35,000 -300 Level Fort Worth Center
12:00PM 33.8142 -98.8708 108° East 429 494 34,400 -1,260 Descending Fort Worth Center
12:01PM 33.7844 -98.7406 105° East 423 487 32,500 -2,520 Descending Fort Worth Center
12:02PM 33.7503 -98.6025 107° East 418 481 29,400 -3,000 Descending Fort Worth Center
12:03PM 33.7389 -98.4625 96° East 423 487 26,600 -2,520 Descending Fort Worth Center
12:04PM 33.7381 -98.3278 90° East 408 470 24,400 -2,160 Descending Fort Worth Center
12:05PM 33.7367 -98.1928 91° East 396 456 22,300 -2,040 Descending Fort Worth Center
12:06PM 33.7356 -98.0678 91° East 380 437 20,400 -1,200 Descending Fort Worth Center
12:07PM 33.6881 -97.9578 117° Southeast 357 411 20,000 -1,260 Descending Fort Worth Center
12:08PM 33.6425 -97.8625 120° Southeast 363 418 17,900 -2,100 Descending Fort Worth Center
12:09PM 33.5906 -97.7550 120° Southeast 375 432 15,800 -2,640 Descending Fort Worth Center
12:10PM 33.5303 -97.6353 121° Southeast 380 437 12,700 -2,280 Descending Fort Worth Center
12:11PM 33.4803 -97.5331 120° Southeast 374 430 11,300 -1,020 Descending Fort Worth Center
12:12PM 33.4386 -97.4583 124° Southeast 326 375 10,700 -900 Descending Fort Worth Center
12:13PM 33.3719 -97.3886 139° Southeast 301 346 9,500 -1,560 Descending Fort Worth Center
12:14PM 33.3667 -97.3167 95° East 280 322 8,000 -1,740 Descending Dallas / Fort Worth TRACON
12:15PM 33.3500 -97.2167 101° East 284 327 6,500 -1,260 Descending Dallas / Fort Worth TRACON
12:16PM 33.3333 -97.1167 101° East 279 321 5,400 -720 Descending Dallas / Fort Worth TRACON
12:17PM 33.3000 -97.0333 116° Southeast 274 315 5,000 -240 Descending Dallas / Fort Worth TRACON
12:18PM 33.3000 -96.9667 90° East 268 308 5,000 -480 Level Dallas / Fort Worth TRACON
12:19PM 33.2667 -96.8667 112° Southeast 275 316 4,200 -480 Descending Dallas / Fort Worth TRACON
12:20PM 33.2167 -96.8000 132° Southeast 261 300 4,000 -120 Descending Dallas / Fort Worth TRACON
12:21PM 33.1667 -96.7500 140° Southeast 273 314 4,000  Level Dallas / Fort Worth TRACON
12:22PM 33.1000 -96.7333 168° South 271 312 4,000  Level Dallas / Fort Worth TRACON
12:23PM 33.0000 -96.7000 164° South 284 327 4,000 -240 Level Dallas / Fort Worth TRACON
12:24PM 32.9333 -96.6833 168° South 271 312 3,600 -540 Descending Dallas / Fort Worth TRACON
12:25PM 32.8667 -96.7000 192° South 244 281 3,000 -300 Descending Dallas / Fort Worth TRACON
12:26PM 32.8167 -96.7167 196° South 197 227 3,000 -540 Level Dallas / Fort Worth TRACON
12:27PM 32.8000 -96.7667 248° West 156 180 1,900 -840 Descending Dallas / Fort Worth TRACON
12:28PM 32.8167 -96.8000 301° West 155 178 1,400 -600 Descending Dallas / Fort Worth TRACON